[[{"header":{"parameterUnit":"m.s-1","parameterCategory":1,"la1":30.2992,"la2":30.254,"lo1":-89.0895,"lo2":-89.0443,"dy":0.0025,"dx":0.0025,"nx":19,"ny":19,"refTime":"2026-05-12T09:00:00:Z","depth":0,"parameterNumber":2,"parameterNumberName":"U-component_of_WINDS"},"data":[0,0,0,-0.1876,-0.1879,-0.2051,-0.2051,-0.2239,-0.2241,0,0,0,0,0,0,0,0,0,0,0,-0.1802,-0.1803,-0.1876,-0.188,-0.205,-0.2052,-0.2239,-0.2241,0,0,0,0,0,0,0,0,0,0,0,-0.1802,-0.1803,-0.1803,-0.188,-0.205,-0.2052,-0.2239,-0.2122,0,0,0,0,0,0,0,0,0,0,-0.1961,-0.1869,-0.1802,-0.1803,-0.1881,-0.205,-0.2052,-0.2117,-0.2129,-0.2147,0,-0.2152,0,-0.2199,-0.2251,-0.2251,0,0,0,-0.1899,-0.1858,-0.1925,-0.1803,-0.1882,-0.205,-0.1979,-0.2124,-0.2138,-0.2163,-0.2155,-0.2163,-0.2202,-0.2252,-0.2252,-0.2281,-0.228,0,0,-0.1889,-0.1822,-0.1915,-0.1933,-0.1899,-0.1973,-0.1984,-0.2133,-0.2122,-0.2156,-0.2168,-0.2205,-0.2253,-0.2254,-0.2282,-0.2281,0,0,0,-0.1849,-0.1814,-0.1878,-0.1924,-0.1957,-0.1978,-0.199,-0.2116,-0.2142,-0.2171,-0.2207,-0.2253,-0.2255,-0.2282,-0.2281,-0.2177,0,0,0,-0.1845,-0.1791,-0.1873,-0.1834,-0.1953,-0.2037,-0.1968,-0.2131,-0.215,-0.2206,-0.2254,-0.2257,-0.2283,-0.2282,-0.2181,-0.214,0,0,0,-0.1799,-0.1786,-0.1802,-0.183,-0.19,-0.2037,-0.2072,-0.2137,-0.2172,-0.2251,-0.2257,-0.2284,-0.2282,-0.2186,-0.2147,-0.2127,0,0,0,-0.1733,-0.171,-0.1799,-0.1788,-0.1898,-0.1969,-0.2072,-0.2129,-0.2185,-0.2254,-0.2283,-0.2281,-0.2187,-0.2151,-0.2131,-0.2098,-0.2078,0,0,-0.1666,-0.1699,-0.1698,-0.1783,-0.182,-0.1948,-0.1972,-0.209,-0.2162,-0.2238,-0.224,-0.218,-0.2147,-0.2128,-0.1986,-0.1969,0,0,0,-0.1654,-0.1652,-0.1677,-0.1724,-0.1809,-0.1881,-0.2001,-0.2044,-0.2112,-0.2185,-0.2169,-0.2152,-0.2144,-0.2132,-0.2117,-0.2115,-0.2272,-0.2272,-0.2273,-0.1465,-0.1554,-0.1558,-0.1666,-0.1711,-0.1834,-0.188,-0.1961,-0.2041,-0.2035,-0.2059,-0.1961,-0.1944,-0.1933,-0.193,-0.2048,-0.2048,-0.2047,-0.2047,-0.1376,-0.1388,-0.1491,-0.1531,-0.1626,-0.1664,-0.1781,-0.1836,-0.1887,-0.1951,-0.1948,-0.2011,-0.1912,-0.1914,-0.204,-0.2041,-0.2042,-0.2043,-0.2043,-0.1263,-0.1284,-0.1334,-0.1411,-0.1461,-0.1574,-0.1616,-0.1703,-0.1786,-0.1782,-0.1817,-0.1819,-0.1833,-0.1792,-0.1792,-0.1792,-0.1791,-0.1791,-0.1791,-0.1126,-0.1186,-0.1209,-0.1295,-0.1337,-0.1403,-0.1524,-0.1569,-0.1642,-0.1702,-0.1703,-0.1783,-0.1884,-0.1908,-0.1786,-0.1787,-0.1788,-0.1788,-0.1788,-0.1006,-0.1046,-0.1081,-0.1121,-0.1231,-0.1275,-0.1384,-0.1467,-0.1517,-0.1535,-0.1616,-0.1676,-0.1718,-0.173,-0.1751,-0.1595,-0.1595,-0.1595,-0.1595,-0.0911,-0.0939,-0.0993,-0.1053,-0.1121,-0.1222,-0.1262,-0.1357,-0.1462,-0.1499,-0.1534,-0.1568,-0.1577,-0.1614,-0.1629,-0.1649,-0.1472,-0.1472,-0.1472,-0.0842,-0.088,-0.0896,-0.0994,-0.1086,-0.1164,-0.1205,-0.1272,-0.1401,-0.1469,-0.153,-0.1536,-0.1592,-0.1606,-0.1676,-0.1697,-0.1737,0,0]},{"header":{"parameterUnit":"m.s-1","parameterCategory":1,"la1":30.2992,"la2":30.254,"lo1":-89.0895,"lo2":-89.0443,"dy":0.0025,"dx":0.0025,"nx":19,"ny":19,"refTime":"2026-05-12T09:00:00:Z","depth":0,"parameterNumber":3,"parameterNumberName":"V-component_of_WINDS"},"data":[0,0,0,0.6253,0.625,0.6082,0.6081,0.5885,0.5884,0,0,0,0,0,0,0,0,0,0,0,0.6318,0.6317,0.6254,0.625,0.6082,0.6081,0.5885,0.5884,0,0,0,0,0,0,0,0,0,0,0,0.6318,0.6317,0.6316,0.6249,0.6082,0.6081,0.5886,0.6005,0,0,0,0,0,0,0,0,0,0,0.6165,0.6239,0.6317,0.6316,0.6249,0.6082,0.6081,0.601,0.5998,0.597,0,0.5953,0,0.5915,0.5872,0.5871,0,0,0,0.6238,0.625,0.6192,0.6316,0.6247,0.6083,0.6154,0.6003,0.5989,0.5954,0.595,0.5942,0.5912,0.5871,0.587,0.5759,0.5759,0,0,0.6248,0.6295,0.6202,0.6183,0.6214,0.616,0.6149,0.5994,0.5992,0.5949,0.5937,0.5909,0.587,0.5868,0.5759,0.5759,0,0,0,0.6282,0.6302,0.6247,0.6192,0.6161,0.6155,0.6143,0.5998,0.5977,0.5934,0.5907,0.5869,0.5867,0.5758,0.5759,0.5806,0,0,0,0.6287,0.6322,0.6251,0.6278,0.6164,0.6078,0.6152,0.5988,0.5969,0.5908,0.5869,0.5865,0.5758,0.5758,0.5805,0.5821,0,0,0,0.6324,0.6326,0.6307,0.6281,0.6211,0.6079,0.6048,0.5982,0.5952,0.5871,0.5864,0.5758,0.5758,0.5804,0.5818,0.5805,0,0,0,0.6375,0.635,0.6308,0.6269,0.6213,0.6112,0.6049,0.597,0.5907,0.5868,0.5758,0.5759,0.5803,0.5817,0.5804,0.5802,0.5806,0,0,0.637,0.6352,0.6325,0.6282,0.6201,0.6133,0.6057,0.5953,0.5901,0.5808,0.5805,0.5805,0.5818,0.5805,0.5813,0.5817,0,0,0,0.6339,0.632,0.6288,0.6231,0.6153,0.6086,0.5989,0.595,0.587,0.5864,0.5796,0.5802,0.5792,0.5789,0.5792,0.578,0.5759,0.5759,0.5759,0.6397,0.6334,0.6285,0.6202,0.6147,0.6048,0.5997,0.5927,0.5877,0.5863,0.5834,0.5847,0.5846,0.5848,0.5836,0.5829,0.5829,0.5829,0.5829,0.6383,0.6346,0.6283,0.6213,0.6145,0.6084,0.5987,0.5954,0.5886,0.5863,0.5851,0.5832,0.5854,0.584,0.5832,0.5832,0.5831,0.5831,0.5831,0.6413,0.6385,0.634,0.6251,0.6189,0.6104,0.6043,0.5983,0.5925,0.5914,0.5877,0.5876,0.5867,0.5901,0.5901,0.5901,0.5901,0.5901,0.5901,0.6463,0.6411,0.6367,0.6283,0.6239,0.6172,0.6072,0.6025,0.5958,0.5919,0.5918,0.587,0.5868,0.5869,0.5901,0.5901,0.5901,0.5901,0.5901,0.647,0.6459,0.6393,0.6349,0.6244,0.6186,0.6111,0.6021,0.5974,0.5945,0.5899,0.5908,0.5884,0.5881,0.5881,0.5914,0.5914,0.5914,0.5914,0.6496,0.6479,0.6397,0.633,0.6257,0.6183,0.6107,0.6029,0.5946,0.5912,0.5898,0.5894,0.5893,0.5869,0.5866,0.5865,0.5893,0.5893,0.5893,0.6496,0.6469,0.6418,0.6339,0.6253,0.6179,0.6106,0.6029,0.5932,0.5891,0.5884,0.5885,0.5876,0.5877,0.5835,0.5833,0.5829,0,0]}]]